Tracking 19242 objects as of 16-Aug-2018
HD Live streaming from Space Station
objects crossing your sky now

SL-3 R/B

Track SL-3 R/B now!
10-day predictions
SL-3 R/B is classified as:


NORAD ID: 12904
Int'l Code: 1981-103B
Perigee: 536.4 km
Apogee: 577.6 km
Inclination: 81.2 °
Period: 95.6 minutes
Semi major axis: 6928 km
RCS: 5.653 m2 (large)
Launch date: October 13, 1981
Source: Commonwealth of Independent States (former USSR) (CIS)
Launch site: PLESETSK MISSILE AND SPACE COMPLEX (PKMTR)

Note: This is a ROCKET BODY
aabbcc
Your satellite tracking list
Your tracking list is empty




NASA's NSSDC Master Catalog

Two Line Element Set (TLE):
1 12904U 81103B   18227.90222946 -.00000231 +00000-0 -17604-4 0  9993
2 12904 081.1784 150.4156 0029720 106.7733 253.6755 15.05529484556503
Source of the keplerian elements: AFSPC